Location: Delia
(51.6321°N, 112.3740°W)
Time: 16:38:11
(UTC+00:00)

ISS - Visible Passes

Search period start: 27 February 2024 00:00
Search period end: 08 March 2024 00:00
Orbit: 414 x 422 km, 51.6° (Epoch: 27 February)

Date Brightness Start Highest point End Pass type
(mag) Time Alt. Az. Time Alt. Az. Time Alt. Az.
27 Feb -1.0 11:18:49 19° E 11:18:49 19° E 11:19:53 10° E visible
27 Feb -3.8 12:51:45 30° W 12:53:18 88° N 12:56:43 10° E visible
28 Feb -3.6 12:05:43 73° E 12:05:43 73° E 12:08:50 10° E visible
28 Feb -3.5 13:38:50 10° W 13:42:11 61° SSW 13:45:32 10° ESE visible
29 Feb -1.2 11:19:38 21° E 11:19:38 21° E 11:20:55 10° E visible
29 Feb -3.8 12:52:34 26° W 12:54:18 75° SSW 12:57:41 10° ESE visible
01 Mar -3.8 12:06:28 82° SE 12:06:28 82° SE 12:09:45 10° E visible
02 Mar -1.4 11:20:22 23° E 11:20:22 23° E 11:21:45 10° E visible
02 Mar -3.3 12:53:18 24° W 12:55:02 48° SSW 12:58:19 10° SE visible
03 Mar -3.6 12:07:13 61° S 12:07:13 61° S 12:10:24 10° ESE visible
04 Mar -1.4 11:21:10 20° ESE 11:21:10 20° ESE 11:22:22 10° ESE visible
04 Mar -2.5 12:54:05 20° WSW 12:55:28 26° SSW 12:58:21 10° SSE visible
05 Mar -2.7 12:08:05 33° S 12:08:05 33° S 12:10:36 10° SE visible
06 Mar -1.0 11:22:10 13° SE 11:22:10 13° SE 11:22:39 10° SE visible
06 Mar -1.7 12:55:06 13° SW 12:55:33 14° SW 12:57:19 10° S visible
07 Mar -1.4 12:09:16 14° S 12:09:16 14° S 12:10:03 10° SSE visible
